Florennes, Belgium

3:47 AM CEST on March 26, 2017 (GMT +0200)
Florennes Air Base

Weather History for EBFS - January, 2013

Change the Weather History Date:

Tuesday, January 15, 2013

  Actual Average Record
Temperature  
Mean Temperature 27 °F -  
Max Temperature 30 °F 38 °F 48 °F (2011)
Min Temperature 24 °F 32 °F 23 °F (2001)
Degree Days  
Heating Degree Days 38    
Moisture  
Dew Point 24 °F    
Average Humidity 91    
Maximum Humidity 100    
Minimum Humidity 81    
Precipitation  
Precipitation 0.08 in - - ()
Sea Level Pressure  
Sea Level Pressure 29.64 in    
Wind  
Wind Speed 9 mph ()    
Max Wind Speed 16 mph    
Max Gust Speed -    
Visibility 2.6 miles    
Events Snow    
Averages and records for this station are not official NWS values.
T = Trace of Precipitation, MM = Missing Value Source: Averaged Metar Reports

Daily Weather History Graph

Daily Weather History Graph

Search for Another Location

Airport or City:

Trip Planner

Search our weather history database for the weather conditions in past years. The results will help you decide how hot, cold, wet, or windy it might be!

Date:

Astronomy

Jan. 15, 2013 Rise Set
Actual Time 8:34 AM CET 5:07 PM CET
Civil Twilight 7:57 AM CET 5:44 PM CET
Nautical Twilight 7:17 AM CET 6:25 PM CET
Astronomical Twilight 6:38 AM CET 7:03 PM CET
Moon 10:02 AM CET (1/15) 10:13 PM CET (1/15)
Length of Visible Light 9h 46m
Length of Day
8h 32m
Waxing Crescent, 17% of the Moon is Illuminated
Jan 15
Waxing Crescent
Jan 19
First Quarter
Jan 27
Full
Feb 3
Last Quarter
Feb 10
New

Hourly Weather History & Observations

Time (CET) Temp. Windchill Dew Point Humidity Pressure Visibility Wind Dir Wind Speed Gust Speed Precip Events Conditions
12:25 AM 24.8 °F 11.9 °F 23.0 °F 93% 29.62 in 0.3 mi South 16.1 mph - N/A Snow Snow
12:55 AM 24.8 °F 11.9 °F 23.0 °F 93% 29.62 in 0.3 mi South 16.1 mph - N/A Snow Snow
1:00 AM 26 °F - 24 °F 87% 29.69 in 0 mi South 15.7 mph - - Snow Snow
1:25 AM 24.8 °F 12.4 °F 23.0 °F 93% 29.59 in 0.4 mi South 15.0 mph - N/A Snow Snow
1:55 AM 24.8 °F 12.9 °F 23.0 °F 93% 29.59 in 1.2 mi South 13.8 mph - N/A Snow Light Snow
2:25 AM 26.6 °F 14.3 °F 23.0 °F 86% 29.59 in 6.2 mi South 16.1 mph - N/A Snow Snow
2:37 AM 26.6 °F 14.3 °F 23.0 °F 86% 29.59 in 0.9 mi South 16.1 mph - N/A   Scattered Clouds
2:55 AM 26.6 °F 14.3 °F 23.0 °F 86% 29.59 in 1.9 mi South 16.1 mph - N/A   Mostly Cloudy
3:25 AM 26.6 °F 14.7 °F 23.0 °F 86% 29.56 in 6.2 mi South 15.0 mph - N/A   Mostly Cloudy
3:55 AM 26.6 °F 19.1 °F 23.0 °F 86% 29.56 in 6.2 mi South 6.9 mph - N/A   Mostly Cloudy
4:00 AM 27 °F - 24 °F 81% 29.64 in 6 mi South 6.7 mph - -   Partly Cloudy
4:25 AM 26.6 °F 20.0 °F 24.8 °F 93% 29.56 in 6.2 mi South 5.8 mph - N/A   Mostly Cloudy
4:55 AM 26.6 °F 21.2 °F 24.8 °F 93% 29.56 in 6.2 mi SSE 4.6 mph - N/A   Mostly Cloudy
5:22 AM 26.6 °F 19.1 °F 24.8 °F 93% 29.53 in 5.0 mi SSE 6.9 mph - N/A Snow Light Snow
5:25 AM 26.6 °F 20.0 °F 24.8 °F 93% 29.53 in 5.0 mi SSE 5.8 mph - N/A Snow Light Snow
5:55 AM 26.6 °F 19.1 °F 24.8 °F 93% 29.53 in 5.0 mi SE 6.9 mph - N/A Snow Light Snow
6:25 AM 26.6 °F 18.2 °F 24.8 °F 93% 29.53 in 3.7 mi SE 8.1 mph - N/A Snow Light Snow
6:53 AM 26.6 °F 18.2 °F 24.8 °F 93% 29.53 in 3.7 mi SE 8.1 mph - N/A Snow Light Snow
6:55 AM 26.6 °F 19.1 °F 24.8 °F 93% 29.53 in 3.7 mi SE 6.9 mph - N/A Snow Light Snow
7:00 AM 27 °F - 25 °F 90% 29.61 in 4 mi SE 6.7 mph - - Snow Light Snow
7:25 AM 26.6 °F 20.0 °F 24.8 °F 93% 29.53 in 2.5 mi ESE 5.8 mph - N/A Snow Light Snow
7:55 AM 26.6 °F 19.1 °F 24.8 °F 93% 29.56 in 2.5 mi ESE 6.9 mph - N/A Snow Light Snow
8:25 AM 26.6 °F 20.0 °F 24.8 °F 93% 29.56 in 3.1 mi SE 5.8 mph - N/A Snow Light Snow
8:55 AM 26.6 °F 21.2 °F 24.8 °F 93% 29.56 in 3.7 mi ESE 4.6 mph - N/A   Mostly Cloudy
9:10 AM 26.6 °F 21.2 °F 24.8 °F 93% 29.56 in 3.7 mi ESE 4.6 mph - N/A Snow Light Snow
9:25 AM 26.6 °F 20.0 °F 24.8 °F 93% 29.56 in 2.8 mi ESE 5.8 mph - N/A Snow Light Snow
9:51 AM 26.6 °F 21.2 °F 24.8 °F 93% 29.59 in 2.2 mi SE 4.6 mph - N/A Snow Light Snow
9:55 AM 26.6 °F 21.2 °F 24.8 °F 93% 29.59 in 1.9 mi ESE 4.6 mph - N/A Snow Light Snow
10:00 AM 27 °F - 25 °F 91% 29.66 in 2 mi ESE 4.5 mph - - Snow Light Snow
10:22 AM 26.6 °F 21.2 °F 26.6 °F 100% 29.59 in 0.9 mi SE 4.6 mph - N/A Snow Light Snow
10:25 AM 26.6 °F 21.2 °F 26.6 °F 100% 29.59 in 0.9 mi SE 4.6 mph - N/A Snow Light Snow
10:55 AM 28.4 °F 23.3 °F 26.6 °F 93% 29.59 in 0.9 mi ESE 4.6 mph - N/A Snow Light Snow
11:02 AM 28.4 °F 23.3 °F 26.6 °F 93% 29.59 in 1.1 mi ESE 4.6 mph - N/A Snow Light Snow
11:15 AM 28.4 °F 23.3 °F 26.6 °F 93% 29.59 in 1.6 mi SSE 4.6 mph - N/A Snow Light Snow
11:55 AM 30.2 °F - 26.6 °F 86% 29.62 in 1.6 mi Variable 2.3 mph - N/A Snow Light Snow
12:18 PM 30.2 °F - 26.6 °F 86% 29.62 in 2.2 mi Variable 2.3 mph - N/A Snow Light Snow
12:25 PM 30.2 °F - 28.4 °F 93% 29.62 in 2.2 mi Variable 2.3 mph - N/A Snow Light Snow
12:55 PM 30.2 °F - 26.6 °F 86% 29.62 in 1.7 mi Calm Calm - N/A Snow Light Snow
1:00 PM 30 °F - 27 °F 85% 29.68 in 2 mi Calm Calm - - Snow Light Snow
1:25 PM 30.2 °F - 28.4 °F 93% 29.62 in 1.6 mi Calm Calm - N/A Snow Light Snow
1:55 PM 30.2 °F - 28.4 °F 93% 29.62 in 1.9 mi Variable 1.2 mph - N/A Snow Light Snow
2:18 PM 30.2 °F 26.7 °F 28.4 °F 93% 29.62 in 0.9 mi Variable 3.5 mph - N/A Snow Light Snow
2:25 PM 30.2 °F 26.7 °F 28.4 °F 93% 29.62 in 0.6 mi Variable 3.5 mph - N/A Snow Snow
2:55 PM 30.2 °F 25.4 °F 28.4 °F 93% 29.65 in 0.6 mi WNW 4.6 mph - N/A Snow Snow
3:25 PM 28.4 °F 21.2 °F 28.4 °F 100% 29.65 in 0.7 mi NW 6.9 mph - N/A Snow Snow
3:55 PM 28.4 °F 19.7 °F 28.4 °F 100% 29.65 in 0.6 mi NNW 9.2 mph - N/A Snow Snow
4:00 PM 29 °F - 28 °F 92% 29.72 in 1 mi NNW 8.9 mph - - Snow Snow
4:02 PM 28.4 °F 19.1 °F 26.6 °F 93% 29.65 in 0.7 mi NNW 10.4 mph - N/A Snow Snow
4:14 PM 28.4 °F 18.5 °F 26.6 °F 93% 29.65 in 0.4 mi NNW 11.5 mph - N/A Snow Snow
4:25 PM 28.4 °F 17.5 °F 26.6 °F 93% 29.68 in 0.4 mi NNW 13.8 mph - N/A Snow Snow
4:29 PM 26.6 °F 14.7 °F 26.6 °F 100% 29.68 in 0.5 mi NNW 15.0 mph - N/A Snow Snow
4:55 PM 26.6 °F 15.2 °F 24.8 °F 93% 29.68 in 0.9 mi NNW 13.8 mph - N/A Snow Light Snow
5:06 PM 26.6 °F 15.7 °F 24.8 °F 93% 29.68 in 1.0 mi NNW 12.7 mph - N/A   Mostly Cloudy
5:25 PM 24.8 °F 14.0 °F 24.8 °F 100% 29.68 in 1.4 mi NNW 11.5 mph - N/A   Mostly Cloudy
5:55 PM 24.8 °F 15.3 °F 23.0 °F 93% 29.71 in 2.2 mi NNW 9.2 mph - N/A   Mostly Cloudy
6:25 PM 24.8 °F 16.1 °F 23.0 °F 93% 29.71 in - NNW 8.1 mph - N/A   Mostly Cloudy
6:51 PM 24.8 °F 15.3 °F 23.0 °F 93% 29.71 in 2.5 mi NNW 9.2 mph - N/A   Mostly Cloudy
6:55 PM 24.8 °F 15.3 °F 23.0 °F 93% 29.71 in 2.8 mi NNW 9.2 mph - N/A   Mostly Cloudy
7:00 PM 25 °F - 22 °F 86% 29.79 in 3 mi NNW 8.9 mph - -   Mist
7:25 PM 24.8 °F 16.1 °F 21.2 °F 86% 29.71 in 3.7 mi NNW 8.1 mph - N/A   Mostly Cloudy
7:55 PM 24.8 °F 15.3 °F 21.2 °F 86% 29.71 in 4.3 mi NW 9.2 mph - N/A   Mostly Cloudy
8:17 PM 24.8 °F 16.1 °F 21.2 °F 86% 29.71 in 4.3 mi NW 8.1 mph - N/A   Mostly Cloudy
8:25 PM 24.8 °F 16.1 °F 21.2 °F 86% 29.71 in 4.3 mi NW 8.1 mph - N/A   Mostly Cloudy
8:55 PM 24.8 °F 16.9 °F 21.2 °F 86% 29.71 in 5.0 mi NW 6.9 mph - N/A   Mostly Cloudy
9:25 PM 24.8 °F 16.1 °F 21.2 °F 86% 29.71 in 4.3 mi WNW 8.1 mph - N/A   Mostly Cloudy
9:51 PM 24.8 °F 15.3 °F 21.2 °F 86% 29.71 in 3.7 mi WNW 9.2 mph - N/A   Mostly Cloudy
9:52 PM 24.8 °F 15.3 °F 21.2 °F 86% 29.71 in 3.7 mi WNW 9.2 mph - N/A   Mostly Cloudy
9:55 PM 24.8 °F 16.1 °F 21.2 °F 86% 29.71 in 3.7 mi NW 8.1 mph - N/A   Mostly Cloudy
10:00 PM 24 °F - 22 °F 87% 29.80 in 4 mi NW 8.9 mph - -   Mostly Cloudy
10:25 PM 24.8 °F 16.9 °F 21.2 °F 86% 29.74 in 3.7 mi NW 6.9 mph - N/A   Mostly Cloudy
10:55 PM 24.8 °F 16.9 °F 21.2 °F 86% 29.74 in 3.7 mi WNW 6.9 mph - N/A   Mostly Cloudy
11:25 PM 24.8 °F 16.9 °F 21.2 °F 86% 29.74 in 3.1 mi NW 6.9 mph - N/A   Mostly Cloudy
11:34 PM 24.8 °F 16.9 °F 23.0 °F 93% 29.74 in - NW 6.9 mph - N/A   Mostly Cloudy
11:40 PM 24.8 °F 16.1 °F 23.0 °F 93% 29.74 in 1.9 mi NW 8.1 mph - N/A Snow Light Snow
11:55 PM 24.8 °F 16.9 °F 23.0 °F 93% 29.74 in 1.1 mi NNW 6.9 mph - N/A Snow Light Snow